VOZ1391 YPAD-YBBN

Flight info

Callsign VOZ1391
Flight time 2h 6m
Altitude 37000
Route UPROT Y27 ENLIP
Aircraft B38M/M-SADE3GHIJ4J7M3RWZ/LB1D1

Departure

Time 2026-05-05 01:26
Airport Adelaide International Airport (YPAD)

Arrival

Time 2026-05-05 03:32
Airport Brisbane International Airport (YBBN)
Time Latitude Longitude Altitude Speed Heading
2026-05-05 01:05 -34.93782 138.54069 29 ft 0 kts 320°
2026-05-05 01:20 -34.93790 138.54077 29 ft 4 kts 320°
2026-05-05 01:20 -34.93810 138.54099 29 ft 4 kts 314°
2026-05-05 01:21 -34.93825 138.54124 29 ft 4 kts 288°
2026-05-05 01:21 -34.93828 138.54139 29 ft 0 kts 270°
2026-05-05 01:24 -34.93834 138.54123 29 ft 5 kts 222°
2026-05-05 01:24 -34.93898 138.54146 29 ft 16 kts 144°
2026-05-05 01:24 -34.93969 138.54216 29 ft 16 kts 140°
2026-05-05 01:25 -34.94061 138.54296 30 ft 13 kts 173°
2026-05-05 01:25 -34.94137 138.54215 31 ft 32 kts 230°
2026-05-05 01:25 -34.94449 138.53765 28 ft 107 kts 230°
2026-05-05 01:25 -34.95068 138.52869 88 ft 160 kts 231°
2026-05-05 01:26 -34.95803 138.51801 707 ft 171 kts 231°
2026-05-05 01:26 -34.96552 138.50705 1682 ft 165 kts 231°
2026-05-05 01:26 -34.97333 138.49566 2234 ft 186 kts 231°
2026-05-05 01:26 -34.98212 138.48284 2740 ft 208 kts 231°
2026-05-05 01:27 -34.99187 138.46863 3229 ft 229 kts 231°
2026-05-05 01:27 -35.00243 138.45322 4007 ft 238 kts 231°
2026-05-05 01:27 -35.01344 138.43727 4538 ft 253 kts 229°
2026-05-05 01:27 -35.02806 138.42490 4686 ft 264 kts 198°
2026-05-05 01:28 -35.04614 138.42343 5743 ft 263 kts 172°
2026-05-05 01:28 -35.06349 138.43127 6688 ft 272 kts 149°
2026-05-05 01:28 -35.07865 138.44475 7601 ft 276 kts 145°
2026-05-05 01:28 -35.09391 138.45982 8507 ft 282 kts 133°
2026-05-05 01:29 -35.10371 138.48064 9426 ft 289 kts 107°
2026-05-05 01:29 -35.10565 138.50500 10275 ft 297 kts 87°
2026-05-05 01:29 -35.10414 138.53069 10846 ft 312 kts 87°
2026-05-05 01:29 -35.10259 138.55798 11301 ft 330 kts 87°
2026-05-05 01:30 -35.10042 138.58641 11894 ft 341 kts 78°
2026-05-05 01:30 -35.09149 138.61310 12800 ft 343 kts 57°
2026-05-05 01:30 -35.07630 138.63592 13578 ft 350 kts 49°
2026-05-05 01:30 -35.06004 138.65822 14379 ft 354 kts 49°
2026-05-05 01:31 -35.04347 138.68065 15125 ft 358 kts 48°
2026-05-05 01:31 -35.02663 138.70325 15858 ft 362 kts 48°
2026-05-05 01:31 -35.00957 138.72603 16593 ft 366 kts 48°
2026-05-05 01:31 -34.99811 138.74129 17073 ft 368 kts 48°
2026-05-05 01:32 -34.97477 138.77235 18014 ft 374 kts 48°
2026-05-05 01:32 -34.95712 138.79581 18683 ft 378 kts 48°
2026-05-05 01:32 -34.93947 138.81924 19261 ft 382 kts 47°
2026-05-05 01:32 -34.92141 138.84319 19842 ft 386 kts 47°
2026-05-05 01:33 -34.90315 138.86741 20395 ft 390 kts 47°
2026-05-05 01:33 -34.88474 138.89180 20968 ft 393 kts 47°
2026-05-05 01:33 -34.86611 138.91647 21521 ft 397 kts 47°
2026-05-05 01:33 -34.84732 138.94132 22072 ft 401 kts 47°
2026-05-05 01:34 -34.82829 138.96649 22613 ft 405 kts 47°
2026-05-05 01:34 -34.80911 138.99181 23153 ft 409 kts 47°
2026-05-05 01:34 -34.78971 139.01743 23672 ft 413 kts 46°
2026-05-05 01:34 -34.77015 139.04323 24131 ft 417 kts 46°
2026-05-05 01:35 -34.75043 139.06922 24572 ft 420 kts 46°
2026-05-05 01:35 -34.73052 139.09546 25011 ft 423 kts 46°
2026-05-05 01:35 -34.71051 139.12179 25453 ft 425 kts 46°
2026-05-05 01:35 -34.69035 139.14831 25888 ft 428 kts 46°
2026-05-05 01:36 -34.67008 139.17494 26311 ft 431 kts 46°
2026-05-05 01:36 -34.64968 139.20172 26733 ft 434 kts 46°
2026-05-05 01:36 -34.62912 139.22870 27143 ft 436 kts 46°
2026-05-05 01:36 -34.61541 139.24667 27416 ft 438 kts 46°
2026-05-05 01:37 -34.58784 139.28281 27930 ft 442 kts 46°
2026-05-05 01:37 -34.56815 139.31154 28318 ft 445 kts 57°
2026-05-05 01:37 -34.55381 139.34489 28727 ft 448 kts 63°
2026-05-05 01:37 -34.53952 139.37862 29052 ft 451 kts 62°
2026-05-05 01:38 -34.52522 139.41265 29448 ft 454 kts 63°
2026-05-05 01:38 -34.51093 139.44690 29819 ft 456 kts 63°
2026-05-05 01:38 -34.49660 139.48134 30183 ft 459 kts 63°
2026-05-05 01:38 -34.48220 139.51596 30510 ft 461 kts 63°
2026-05-05 01:39 -34.47243 139.53943 30724 ft 463 kts 63°
2026-05-05 01:39 -34.45788 139.57435 31046 ft 464 kts 63°
2026-05-05 01:39 -34.44329 139.60932 31351 ft 466 kts 63°
2026-05-05 01:39 -34.42882 139.64398 31662 ft 468 kts 63°
2026-05-05 01:40 -34.41409 139.67924 31963 ft 470 kts 63°
2026-05-05 01:40 -34.39929 139.71461 32263 ft 472 kts 63°
2026-05-05 01:40 -34.38443 139.75011 32558 ft 474 kts 63°
2026-05-05 01:40 -34.36946 139.78579 32843 ft 476 kts 63°
2026-05-05 01:41 -34.35444 139.82160 33149 ft 477 kts 63°
2026-05-05 01:41 -34.33936 139.85748 33444 ft 479 kts 63°
2026-05-05 01:41 -34.32426 139.89340 33832 ft 478 kts 63°
2026-05-05 01:41 -34.30916 139.92925 34252 ft 477 kts 63°
2026-05-05 01:42 -34.29412 139.96492 34601 ft 476 kts 63°
2026-05-05 01:42 -34.27907 140.00059 34911 ft 476 kts 63°
2026-05-05 01:42 -34.26402 140.03624 35206 ft 476 kts 63°
2026-05-05 01:42 -34.25125 140.07318 35484 ft 475 kts 75°
2026-05-05 01:43 -34.24210 140.11156 35750 ft 475 kts 72°
2026-05-05 01:43 -34.23180 140.14952 36008 ft 476 kts 71°
2026-05-05 01:43 -34.22124 140.18743 36276 ft 476 kts 71°
2026-05-05 01:43 -34.21067 140.22476 36530 ft 476 kts 71°
2026-05-05 01:44 -34.19976 140.26306 36790 ft 476 kts 70°
2026-05-05 01:44 -34.18897 140.30082 37047 ft 476 kts 70°
2026-05-05 01:44 -34.17830 140.33813 37253 ft 476 kts 70°
2026-05-05 01:44 -34.16745 140.37598 37301 ft 477 kts 70°
2026-05-05 01:45 -34.14581 140.45137 37281 ft 475 kts 70°
2026-05-05 01:45 -34.12412 140.52671 37282 ft 475 kts 70°
2026-05-05 01:46 -34.10242 140.60191 37282 ft 475 kts 70°
2026-05-05 01:46 -34.08065 140.67714 37281 ft 474 kts 70°
2026-05-05 01:47 -34.05886 140.75227 37280 ft 474 kts 70°
2026-05-05 01:47 -34.03702 140.82734 37281 ft 474 kts 70°
2026-05-05 01:48 -34.01516 140.90229 37281 ft 474 kts 70°
2026-05-05 01:48 -33.99327 140.97716 37276 ft 474 kts 70°
2026-05-05 01:49 -33.97134 141.05198 37276 ft 474 kts 69°
2026-05-05 01:49 -33.94935 141.12679 37278 ft 473 kts 69°
2026-05-05 01:50 -33.92734 141.20149 37281 ft 473 kts 69°
2026-05-05 01:50 -33.90525 141.27628 37275 ft 473 kts 69°
2026-05-05 01:51 -33.88316 141.35087 37276 ft 473 kts 69°
2026-05-05 01:51 -33.86097 141.42557 37275 ft 473 kts 69°
2026-05-05 01:52 -33.83894 141.49959 37273 ft 474 kts 69°
2026-05-05 01:52 -33.81667 141.57423 37269 ft 474 kts 69°
2026-05-05 01:53 -33.79437 141.64876 37275 ft 474 kts 69°
2026-05-05 01:53 -33.77200 141.72335 37271 ft 474 kts 68°
2026-05-05 01:54 -33.74940 141.79782 37270 ft 474 kts 65°
2026-05-05 01:54 -33.73311 141.83179 37268 ft 467 kts 50°
2026-05-05 01:54 -33.71349 141.86293 37264 ft 470 kts 51°
2026-05-05 01:55 -33.67401 141.92551 37271 ft 470 kts 50°
2026-05-05 01:55 -33.63410 141.98767 37270 ft 470 kts 50°
2026-05-05 01:56 -33.59412 142.04972 37267 ft 470 kts 50°
2026-05-05 01:56 -33.55407 142.11176 37266 ft 470 kts 49°
2026-05-05 01:57 -33.51404 142.17369 37267 ft 470 kts 49°
2026-05-05 01:57 -33.47423 142.23515 37263 ft 470 kts 49°
2026-05-05 01:58 -33.43410 142.29700 37263 ft 470 kts 49°
2026-05-05 01:58 -33.39394 142.35879 37263 ft 470 kts 49°
2026-05-05 01:59 -33.35375 142.42054 37262 ft 470 kts 49°
2026-05-05 01:59 -33.31352 142.48223 37261 ft 470 kts 49°
2026-05-05 02:00 -33.27323 142.54392 37261 ft 471 kts 49°
2026-05-05 02:00 -33.23291 142.60554 37262 ft 471 kts 49°
2026-05-05 02:01 -33.19254 142.66714 37256 ft 471 kts 49°
2026-05-05 02:01 -33.15214 142.72869 37263 ft 471 kts 49°
2026-05-05 02:02 -33.11172 142.79016 37257 ft 471 kts 49°
2026-05-05 02:02 -33.07123 142.85164 37259 ft 471 kts 48°
2026-05-05 02:03 -33.03067 142.91311 37262 ft 471 kts 48°
2026-05-05 02:03 -32.99009 142.97452 37255 ft 472 kts 48°
2026-05-05 02:04 -32.94946 143.03589 37258 ft 472 kts 48°
2026-05-05 02:04 -32.90912 143.09674 37258 ft 471 kts 48°
2026-05-05 02:05 -32.86846 143.15796 37253 ft 471 kts 48°
2026-05-05 02:05 -32.82778 143.21911 37260 ft 471 kts 48°
2026-05-05 02:06 -32.78705 143.28023 37255 ft 471 kts 47°
2026-05-05 02:06 -32.74629 143.34130 37254 ft 471 kts 47°
2026-05-05 02:07 -32.70550 143.40233 37258 ft 472 kts 47°
2026-05-05 02:07 -32.66470 143.46326 37258 ft 472 kts 47°
2026-05-05 02:08 -32.62380 143.52424 37256 ft 472 kts 47°
2026-05-05 02:08 -32.58290 143.58512 37252 ft 472 kts 47°
2026-05-05 02:09 -32.54194 143.64599 37250 ft 472 kts 47°
2026-05-05 02:09 -32.50120 143.70642 37245 ft 472 kts 47°
2026-05-05 02:10 -32.46022 143.76713 37245 ft 472 kts 47°
2026-05-05 02:10 -32.41911 143.82794 37243 ft 472 kts 46°
2026-05-05 02:11 -32.37802 143.88860 37246 ft 472 kts 46°
2026-05-05 02:11 -32.33690 143.94922 37245 ft 473 kts 46°
2026-05-05 02:12 -32.27508 144.04017 37250 ft 473 kts 46°
2026-05-05 02:13 -32.23383 144.10073 37242 ft 473 kts 46°
2026-05-05 02:13 -32.19256 144.16122 37240 ft 473 kts 46°
2026-05-05 02:14 -32.15153 144.22126 37236 ft 473 kts 46°
2026-05-05 02:14 -32.11019 144.28167 37237 ft 473 kts 45°
2026-05-05 02:15 -32.06884 144.34200 37234 ft 473 kts 45°
2026-05-05 02:15 -32.02749 144.40222 37232 ft 473 kts 45°
2026-05-05 02:16 -31.98606 144.46246 37229 ft 473 kts 45°
2026-05-05 02:16 -31.94460 144.52267 37231 ft 473 kts 45°
2026-05-05 02:17 -31.90314 144.58276 37229 ft 473 kts 45°
2026-05-05 02:17 -31.86164 144.64283 37230 ft 473 kts 45°
2026-05-05 02:18 -31.82039 144.70243 37226 ft 472 kts 44°
2026-05-05 02:18 -31.77885 144.76236 37229 ft 472 kts 44°
2026-05-05 02:19 -31.73731 144.82220 37224 ft 472 kts 44°
2026-05-05 02:19 -31.69576 144.88195 37223 ft 472 kts 44°
2026-05-05 02:20 -31.65421 144.94162 37219 ft 472 kts 44°
2026-05-05 02:20 -31.61261 145.00126 37224 ft 472 kts 44°
2026-05-05 02:21 -31.57103 145.06081 37222 ft 471 kts 44°
2026-05-05 02:21 -31.52944 145.12027 37228 ft 471 kts 44°
2026-05-05 02:22 -31.48812 145.17926 37217 ft 471 kts 43°
2026-05-05 02:22 -31.44648 145.23862 37216 ft 471 kts 43°
2026-05-05 02:23 -31.41188 145.28789 37215 ft 471 kts 43°
2026-05-05 02:23 -31.37014 145.34708 37210 ft 471 kts 43°
2026-05-05 02:24 -31.32837 145.40623 37210 ft 472 kts 43°
2026-05-05 02:24 -31.28661 145.46538 37208 ft 472 kts 43°
2026-05-05 02:25 -31.24480 145.52450 37209 ft 472 kts 42°
2026-05-05 02:25 -31.20298 145.58357 37208 ft 472 kts 43°
2026-05-05 02:26 -31.16108 145.64266 37204 ft 472 kts 43°
2026-05-05 02:26 -31.11912 145.70171 37205 ft 472 kts 42°
2026-05-05 02:27 -31.07718 145.76064 37204 ft 472 kts 42°
2026-05-05 02:27 -31.03516 145.81961 37198 ft 473 kts 42°
2026-05-05 02:28 -30.99313 145.87850 37199 ft 473 kts 42°
2026-05-05 02:28 -30.95098 145.93745 37192 ft 473 kts 42°
2026-05-05 02:29 -30.90902 145.99606 37194 ft 473 kts 41°
2026-05-05 02:29 -30.86685 146.05488 37189 ft 473 kts 41°
2026-05-05 02:30 -30.82460 146.11373 37190 ft 474 kts 41°
2026-05-05 02:30 -30.78230 146.17254 37183 ft 474 kts 41°
2026-05-05 02:31 -30.73998 146.23129 37183 ft 474 kts 41°
2026-05-05 02:31 -30.69763 146.28999 37181 ft 474 kts 41°
2026-05-05 02:32 -30.65524 146.34868 37178 ft 474 kts 41°
2026-05-05 02:32 -30.61311 146.40691 37177 ft 474 kts 40°
2026-05-05 02:33 -30.57069 146.46545 37177 ft 474 kts 40°
2026-05-05 02:33 -30.52823 146.52396 37177 ft 474 kts 40°
2026-05-05 02:34 -30.48573 146.58245 37173 ft 474 kts 40°
2026-05-05 02:34 -30.44317 146.64091 37170 ft 474 kts 40°
2026-05-05 02:35 -30.40062 146.69929 37168 ft 474 kts 40°
2026-05-05 02:35 -30.35799 146.75770 37170 ft 474 kts 39°
2026-05-05 02:36 -30.31533 146.81605 37167 ft 475 kts 39°
2026-05-05 02:36 -30.27269 146.87430 37168 ft 475 kts 39°
2026-05-05 02:37 -30.23022 146.93222 37171 ft 475 kts 39°
2026-05-05 02:37 -30.18744 146.99047 37169 ft 475 kts 39°
2026-05-05 02:38 -30.14461 147.04872 37169 ft 475 kts 38°
2026-05-05 02:38 -30.10176 147.10691 37162 ft 475 kts 38°
2026-05-05 02:39 -30.05890 147.16504 37171 ft 475 kts 38°
2026-05-05 02:39 -30.01601 147.22315 37165 ft 475 kts 38°
2026-05-05 02:39 -29.99537 147.25331 37150 ft 488 kts 47°
2026-05-05 02:40 -29.97955 147.28871 37178 ft 499 kts 53°
2026-05-05 02:40 -29.94892 147.35998 37168 ft 500 kts 53°
2026-05-05 02:41 -29.91827 147.43218 37161 ft 501 kts 53°
2026-05-05 02:41 -29.88740 147.50489 37163 ft 502 kts 53°
2026-05-05 02:42 -29.85689 147.57667 37158 ft 502 kts 53°
2026-05-05 02:42 -29.82605 147.64906 37156 ft 503 kts 53°
2026-05-05 02:43 -29.79511 147.72142 37161 ft 503 kts 52°
2026-05-05 02:43 -29.76416 147.79382 37047 ft 502 kts 52°
2026-05-05 02:43 -29.74875 147.82988 37169 ft 503 kts 52°
2026-05-05 02:44 -29.73323 147.86611 37167 ft 506 kts 52°
2026-05-05 02:44 -29.70207 147.93872 37154 ft 506 kts 52°
2026-05-05 02:45 -29.67105 148.01085 37153 ft 507 kts 52°
2026-05-05 02:45 -29.63972 148.08356 37147 ft 508 kts 52°
2026-05-05 02:46 -29.60829 148.15636 37143 ft 509 kts 52°
2026-05-05 02:46 -29.57677 148.22924 37138 ft 510 kts 52°
2026-05-05 02:47 -29.54516 148.30222 37138 ft 510 kts 52°
2026-05-05 02:47 -29.51346 148.37523 37141 ft 511 kts 52°
2026-05-05 02:48 -29.48168 148.44831 37142 ft 512 kts 52°
2026-05-05 02:48 -29.44982 148.52146 37138 ft 512 kts 52°
2026-05-05 02:49 -29.42454 148.59836 37125 ft 538 kts 75°
2026-05-05 02:49 -29.42253 148.64165 37150 ft 549 kts 84°
2026-05-05 02:49 -29.42208 148.68551 37124 ft 550 kts 83°
2026-05-05 02:50 -29.42114 148.77336 37133 ft 551 kts 83°
2026-05-05 02:50 -29.42033 148.86120 37129 ft 551 kts 83°
2026-05-05 02:51 -29.41948 148.94901 37128 ft 551 kts 83°
2026-05-05 02:51 -29.41856 149.03690 37129 ft 551 kts 83°
2026-05-05 02:52 -29.41758 149.12473 37122 ft 551 kts 83°
2026-05-05 02:52 -29.41657 149.21264 37124 ft 551 kts 83°
2026-05-05 02:53 -29.41546 149.30062 37117 ft 552 kts 83°
2026-05-05 02:53 -29.41433 149.38804 37114 ft 552 kts 83°
2026-05-05 02:54 -29.41311 149.47605 37114 ft 552 kts 83°
2026-05-05 02:54 -29.41184 149.56408 37110 ft 552 kts 83°
2026-05-05 02:55 -29.41052 149.65215 37115 ft 552 kts 83°
2026-05-05 02:55 -29.40913 149.74022 37109 ft 552 kts 82°
2026-05-05 02:56 -29.40769 149.82835 37105 ft 552 kts 82°
2026-05-05 02:56 -29.40619 149.91643 37102 ft 552 kts 82°
2026-05-05 02:57 -29.40465 150.00439 37102 ft 552 kts 83°
2026-05-05 02:57 -29.40305 150.09181 37099 ft 552 kts 82°
2026-05-05 02:58 -29.40136 150.17976 37096 ft 552 kts 82°
2026-05-05 02:58 -29.39962 150.26774 37101 ft 552 kts 82°
2026-05-05 02:59 -29.39783 150.35563 37090 ft 552 kts 82°
2026-05-05 02:59 -29.39027 150.44187 37081 ft 528 kts 62°
2026-05-05 02:59 -29.37580 150.47935 37114 ft 506 kts 49°
2026-05-05 03:00 -29.35892 150.51493 37077 ft 510 kts 50°
2026-05-05 03:00 -29.32499 150.58620 37089 ft 508 kts 49°
2026-05-05 03:01 -29.29077 150.65704 37093 ft 508 kts 49°
2026-05-05 03:01 -29.25648 150.72782 37091 ft 508 kts 49°
2026-05-05 03:02 -29.22215 150.79856 37099 ft 509 kts 49°
2026-05-05 03:02 -29.18793 150.86896 37096 ft 509 kts 49°
2026-05-05 03:03 -29.15346 150.93974 37095 ft 509 kts 49°
2026-05-05 03:03 -29.11892 151.01056 37088 ft 510 kts 49°
2026-05-05 03:04 -29.08433 151.08132 37097 ft 509 kts 49°
2026-05-05 03:04 -29.04993 151.15161 37100 ft 509 kts 49°
2026-05-05 03:05 -29.01530 151.22223 37090 ft 509 kts 49°
2026-05-05 03:05 -28.98063 151.29280 37090 ft 508 kts 49°
2026-05-05 03:05 -28.96341 151.32783 36521 ft 505 kts 49°
2026-05-05 03:06 -28.94605 151.36303 35567 ft 512 kts 50°
2026-05-05 03:06 -28.92856 151.39858 34935 ft 511 kts 50°
2026-05-05 03:06 -28.91124 151.43372 34563 ft 504 kts 50°
2026-05-05 03:06 -28.89413 151.46839 34127 ft 498 kts 51°
2026-05-05 03:07 -28.87717 151.50270 33499 ft 497 kts 51°
2026-05-05 03:07 -28.86023 151.53696 32906 ft 494 kts 51°
2026-05-05 03:07 -28.84338 151.57102 32394 ft 490 kts 51°
2026-05-05 03:07 -28.82458 151.60250 31763 ft 470 kts 35°
2026-05-05 03:08 -28.80181 151.62772 31282 ft 460 kts 34°
2026-05-05 03:08 -28.77939 151.65363 30838 ft 456 kts 34°
2026-05-05 03:08 -28.75711 151.67913 30339 ft 452 kts 34°
2026-05-05 03:08 -28.73491 151.70431 29772 ft 449 kts 34°
2026-05-05 03:09 -28.71285 151.72926 29236 ft 443 kts 34°
2026-05-05 03:09 -28.69125 151.75366 28664 ft 433 kts 34°
2026-05-05 03:09 -28.66992 151.77772 27978 ft 428 kts 35°
2026-05-05 03:09 -28.64901 151.80128 27552 ft 418 kts 35°
2026-05-05 03:10 -28.62860 151.82428 27138 ft 407 kts 34°
2026-05-05 03:10 -28.60869 151.84670 26725 ft 398 kts 35°
2026-05-05 03:10 -28.58922 151.86859 26330 ft 389 kts 35°
2026-05-05 03:10 -28.57016 151.89004 25934 ft 381 kts 34°
2026-05-05 03:11 -28.55775 151.90399 25693 ft 377 kts 35°
2026-05-05 03:11 -28.53912 151.92490 25312 ft 375 kts 35°
2026-05-05 03:11 -28.52059 151.94571 24937 ft 374 kts 35°
2026-05-05 03:11 -28.49586 151.97347 24432 ft 373 kts 36°
2026-05-05 03:12 -28.48361 151.98721 24179 ft 372 kts 36°
2026-05-05 03:12 -28.46521 152.00783 23810 ft 372 kts 36°
2026-05-05 03:12 -28.44681 152.02846 23406 ft 371 kts 36°
2026-05-05 03:12 -28.42848 152.04900 22981 ft 369 kts 36°
2026-05-05 03:13 -28.41025 152.06941 22609 ft 366 kts 36°
2026-05-05 03:13 -28.39218 152.08963 22250 ft 364 kts 36°
2026-05-05 03:13 -28.37417 152.10978 21886 ft 362 kts 37°
2026-05-05 03:13 -28.35631 152.12974 21525 ft 359 kts 37°
2026-05-05 03:14 -28.33856 152.14957 21161 ft 357 kts 37°
2026-05-05 03:14 -28.32093 152.16926 20801 ft 355 kts 37°
2026-05-05 03:14 -28.30339 152.18885 20453 ft 353 kts 38°
2026-05-05 03:14 -28.28593 152.20833 20098 ft 351 kts 38°
2026-05-05 03:15 -28.26881 152.22741 19754 ft 349 kts 38°
2026-05-05 03:15 -28.25156 152.24664 19400 ft 347 kts 39°
2026-05-05 03:15 -28.23435 152.26581 19055 ft 346 kts 39°
2026-05-05 03:15 -28.21724 152.28487 18703 ft 344 kts 39°
2026-05-05 03:16 -28.20024 152.30378 18337 ft 339 kts 39°
2026-05-05 03:16 -28.18353 152.32237 17967 ft 335 kts 40°
2026-05-05 03:16 -28.16697 152.34078 17622 ft 333 kts 40°
2026-05-05 03:16 -28.15051 152.35910 17278 ft 330 kts 40°
2026-05-05 03:17 -28.13420 152.37721 16944 ft 327 kts 40°
2026-05-05 03:17 -28.11795 152.39524 16608 ft 325 kts 41°
2026-05-05 03:17 -28.10187 152.41309 16271 ft 323 kts 41°
2026-05-05 03:17 -28.08581 152.43090 15945 ft 321 kts 41°
2026-05-05 03:18 -28.06991 152.44855 15622 ft 319 kts 41°
2026-05-05 03:18 -28.05412 152.46605 15295 ft 317 kts 42°
2026-05-05 03:18 -28.03841 152.48345 14976 ft 315 kts 42°
2026-05-05 03:18 -28.02280 152.50074 14654 ft 313 kts 42°
2026-05-05 03:19 -27.99180 152.53508 14012 ft 311 kts 43°
2026-05-05 03:19 -27.97637 152.55215 13666 ft 310 kts 43°
2026-05-05 03:19 -27.96100 152.56914 13312 ft 308 kts 43°
2026-05-05 03:20 -27.94743 152.58785 12931 ft 309 kts 60°
2026-05-05 03:20 -27.93768 152.60940 12601 ft 307 kts 62°
2026-05-05 03:20 -27.92787 152.63079 12303 ft 305 kts 62°
2026-05-05 03:20 -27.91831 152.65176 11988 ft 303 kts 62°
2026-05-05 03:21 -27.90869 152.67292 11680 ft 302 kts 63°
2026-05-05 03:21 -27.89913 152.69397 11360 ft 300 kts 63°
2026-05-05 03:21 -27.88961 152.71494 11046 ft 299 kts 63°
2026-05-05 03:21 -27.88013 152.73578 10742 ft 298 kts 63°
2026-05-05 03:22 -27.87065 152.75658 10438 ft 297 kts 63°
2026-05-05 03:22 -27.86088 152.77682 10255 ft 291 kts 56°
2026-05-05 03:22 -27.84902 152.79503 10095 ft 285 kts 54°
2026-05-05 03:22 -27.83728 152.81316 9774 ft 286 kts 55°
2026-05-05 03:23 -27.82563 152.83142 9419 ft 287 kts 55°
2026-05-05 03:23 -27.81403 152.84967 9108 ft 286 kts 56°
2026-05-05 03:23 -27.80049 152.86609 8690 ft 290 kts 34°
2026-05-05 03:23 -27.78273 152.87706 8345 ft 290 kts 28°
2026-05-05 03:24 -27.76506 152.88745 8037 ft 289 kts 28°
2026-05-05 03:24 -27.74726 152.89782 7701 ft 288 kts 27°
2026-05-05 03:24 -27.72928 152.90792 7348 ft 288 kts 27°
2026-05-05 03:24 -27.71127 152.91806 6967 ft 290 kts 27°
2026-05-05 03:25 -27.69319 152.92838 6595 ft 292 kts 27°
2026-05-05 03:25 -27.67509 152.93878 6229 ft 292 kts 27°
2026-05-05 03:25 -27.65719 152.94908 5851 ft 284 kts 27°
2026-05-05 03:25 -27.63985 152.95907 5504 ft 275 kts 27°
2026-05-05 03:26 -27.62308 152.96874 5170 ft 267 kts 27°
2026-05-05 03:26 -27.60677 152.97814 4845 ft 259 kts 27°
2026-05-05 03:26 -27.59174 152.98680 4523 ft 254 kts 27°
2026-05-05 03:26 -27.57623 152.99574 4172 ft 247 kts 27°
2026-05-05 03:27 -27.56128 153.00435 3926 ft 238 kts 27°
2026-05-05 03:27 -27.54668 153.01276 3614 ft 231 kts 27°
2026-05-05 03:27 -27.53257 153.02088 3310 ft 224 kts 27°
2026-05-05 03:27 -27.51926 153.02855 3045 ft 216 kts 27°
2026-05-05 03:28 -27.50602 153.03616 2854 ft 203 kts 27°
2026-05-05 03:28 -27.49430 153.04306 2504 ft 192 kts 28°
2026-05-05 03:28 -27.48334 153.04961 2289 ft 169 kts 28°
2026-05-05 03:28 -27.47346 153.05551 2024 ft 156 kts 28°
2026-05-05 03:29 -27.46394 153.06109 1699 ft 152 kts 27°
2026-05-05 03:29 -27.45453 153.06646 1591 ft 152 kts 26°
2026-05-05 03:29 -27.44498 153.07177 1395 ft 152 kts 26°
2026-05-05 03:29 -27.43549 153.07697 1214 ft 152 kts 26°
2026-05-05 03:30 -27.42600 153.08220 976 ft 156 kts 27°
2026-05-05 03:30 -27.41631 153.08773 778 ft 154 kts 28°
2026-05-05 03:30 -27.40695 153.09323 591 ft 149 kts 28°
2026-05-05 03:30 -27.39777 153.09847 399 ft 146 kts 28°
2026-05-05 03:31 -27.38877 153.10351 181 ft 142 kts 28°
2026-05-05 03:31 -27.38023 153.10844 26 ft 131 kts 28°
2026-05-05 03:31 -27.37362 153.11225 21 ft 73 kts 27°
2026-05-05 03:31 -27.37002 153.11428 25 ft 55 kts 27°
2026-05-05 03:32 -27.36735 153.11645 22 ft 45 kts 58°
2026-05-05 03:32 -27.36636 153.11885 20 ft 29 kts 104°
2026-05-05 03:32 -27.36769 153.11892 20 ft 22 kts 209°
2026-05-05 03:32 -27.36910 153.11807 20 ft 24 kts 207°
2026-05-05 03:33 -27.37067 153.11719 20 ft 26 kts 205°
2026-05-05 03:33 -27.37236 153.11622 21 ft 28 kts 207°
2026-05-05 03:33 -27.37354 153.11675 21 ft 21 kts 117°
2026-05-05 03:33 -27.37424 153.11830 20 ft 23 kts 116°
2026-05-05 03:34 -27.37499 153.11999 20 ft 25 kts 117°
2026-05-05 03:34 -27.37582 153.12181 20 ft 27 kts 116°
2026-05-05 03:34 -27.37670 153.12378 20 ft 29 kts 118°
2026-05-05 03:34 -27.37767 153.12585 20 ft 31 kts 116°
2026-05-05 03:35 -27.37851 153.12774 21 ft 25 kts 122°
2026-05-05 03:35 -27.37976 153.12779 20 ft 19 kts 209°
2026-05-05 03:35 -27.38090 153.12712 20 ft 20 kts 210°
2026-05-05 03:35 -27.38222 153.12636 20 ft 22 kts 206°
2026-05-05 03:36 -27.38364 153.12555 20 ft 24 kts 206°
2026-05-05 03:36 -27.38521 153.12465 21 ft 27 kts 207°
2026-05-05 03:36 -27.38693 153.12368 20 ft 29 kts 206°
2026-05-05 03:36 -27.38799 153.12267 20 ft 13 kts 292°
2026-05-05 03:37 -27.38765 153.12160 22 ft 16 kts 291°
2026-05-05 03:37 -27.38754 153.12052 21 ft 14 kts 258°
2026-05-05 03:37 -27.38751 153.11970 21 ft 10 kts 312°
2026-05-05 03:37 -27.38720 153.11951 20 ft 2 kts 336°
2026-05-05 03:38 -27.38718 153.11949 20 ft 0 kts 336°